Starlink 2255

operational
NORAD ID: 48597 Int'l Des: 2021-041 Owner: SPXS Country: US Constellation: starlink
LEOCIRCULAR

Starlink 2255について

説明を読み込み中...

リアルタイム位置

3D地球を読み込み中...

次回通過

高度履歴

Altitude vs Time

uPlot chart will show altitude changes over time

軌道要素

1 48597U 21041AW 26062.50001156 -.00005742 00000-0 -18684-3 0 9995
2 48597 53.1558 168.2589 0001125 110.8126 201.2287 15.29346726 5775
Epoch: Mar 3, 2026 • Age: 20 hours

現在のステータス

高度 496.5 km
速度 7.62 km/s
衛星直下点 -52.14°S, 35.6°W
打ち上げ日 May 15, 2021
運用期間 4.7 years
タイプ internet

技術仕様

分類 Payload
質量 260.00 kg
乾燥質量 248.00 kg
総質量 260.00 kg
長さ 0.20 m
直径 2.80 m
スパン 9.00 m
形状 Box + pan
製造者 SPXS
バスタイプ Starlink
フェーズステータス In Orbit
所有者/国 SPXS/US

大規模コンステレーション

Loading constellations...